Regional Weather Roundup
Issued by NWS

Home | Current Version | Previous Version | Graphics & Text | Print | Product List | Glossary Off
Versions: 1 2 3 4 5 6 7 8 9 10 11 12 13 14 15 16 17 18 19 20 21 22 23 24 25 26 27 28 29 30 31 32 33 34 35 36 37 38 39 40 41 42 43 44 45 46 47 48 49 50

000
ASUS43 KTOP 291859
RWRKS

WEATHER ROUNDUP FOR KANSAS
NATIONAL WEATHER SERVICE GOODLAND KS
200 PM CDT FRI JUL 29 2016

NOTE:  "FAIR" INDICATES FEW OR NO CLOUDS BELOW 12,000 FEET WITH NO
SIGNIFICANT WEATHER AND/OR OBSTRUCTIONS TO VISIBILITY.

KSZ001>006-013>018-027>032-041>047-292000-
NORTHWEST KANSAS

CITY           SKY/WX    TMP DP  RH WIND       PRES   REMARKS
GOODLAND       CLOUDY    70  63  78 CALM      30.16S
HAYS           MOSUNNY   82  61  47 E3        30.06F
HILL CITY      MOSUNNY   81  63  54 SE8       30.08F
RUSSELL        MOSUNNY   84  62  47 VRB3      30.04F
$$

KSZ061>065-074>080-084>089-292000-
SOUTHWEST KANSAS

CITY           SKY/WX    TMP DP  RH WIND       PRES   REMARKS
DODGE CITY     CLOUDY    79  66  64 VRB6      30.09F
ELKHART          N/A     80  63  56 SE14        N/A
GARDEN CITY    CLOUDY    78  63  59 SE6       30.11F
GREAT BEND     PTSUNNY   79  64  61 SW3       30.06S
LIBERAL        PTSUNNY   77  63  61 S7        30.13F
$$

KSZ066>073-081>083-090>101-292000-
SOUTHEAST KANSAS

CITY           SKY/WX    TMP DP  RH WIND       PRES   REMARKS
CHANUTE        MOSUNNY   85  68  56 N9        30.00F
COFFEYVILLE    PTSUNNY   85  68  56 NW9       29.99F
HUTCHINSON     SUNNY     86  65  49 NW12      30.03F
NEWTON         MOSUNNY   82  70  66 NW10      30.03F
PARSONS        PTSUNNY   84  70  62 N5        30.00F
WICHITA INTL   MOSUNNY   86  68  54 N10       30.02F
WICHITA JABRA  CLOUDY    85  69  58 NW8       30.02F
WICHITA MCCONL MOSUNNY   83  68  60 N9        30.02F
WINFIELD       PTSUNNY   83  66  56 CALM      30.03F
$$

KSZ007>012-019>026-033>040-048>060-102>105-292000-
NORTHEAST KANSAS

CITY           SKY/WX    TMP DP  RH WIND       PRES   REMARKS
CONCORDIA      PTSUNNY   78  65  63 NE8       30.05F
EMPORIA        MOSUNNY   84  66  54 W5        30.01F
LAWRENCE       PTSUNNY   82  67  60 N7        30.00F
MANHATTAN      MOSUNNY   82  68  62 VRB5      30.02F
OLATHE IND     PTSUNNY   83  66  56 NW6       30.00F
OLATHE EXE     PTSUNNY   82  64  54 NW3       30.00F
SALINA         PTSUNNY   86  67  52 NE5       30.03F
TOPEKA BILLARD CLOUDY    81  64  56 NE3       30.01S
TOPEKA FORBES  PTSUNNY   82  67  60 VRB3      30.01F
$$



USA.gov is the U.S. government's official web portal to all federal, state and local government web resources and services.